Flag for Russia Weather past 2 weeks in Kaliningrad, Russia

Now
27 °F

Clear.


Feels Like: 17 °F
Forecast: 29 / 48 °F
Wind: 10 mph from South

Location: Kaliningrad/Khrabrovo Airport

Current Time: Oct 25, 2014 at 9:06:58 AM

Latest Report: Oct 25, 2014 at 8:30 AM


Visibility: 10 mi

Pressure: 30.36 "Hg

Humidity: 59%

Dew point: 14 °F

Location of KaliningradLocation

Historic Weather in Kaliningrad — Graph

°F

Kaliningrad temperature yesterday

Maximum temperature yesterday: 41 °F (at 3:30 PM)
Minimum temperature yesterday: 25 °F (at 8:30 AM)
Average temperature yesterday: 32 °F

Past Weeks' High & Low Weather Summary

 TemperatureHumidityPressure
High66 °F (Oct 10, 2:00 PM)94% (Oct 10, 8:30 PM)30.45 "Hg (Oct 10, 8:30 PM)
Low25 °F (Oct 24, 8:30 AM)31% (Oct 24, 3:30 PM)29.59 "Hg (Oct 20, 11:00 AM)
Average49 °F81%29.93 "Hg
* Reported Oct 10 8:00 AM — Oct 25 8:00 AM, Kaliningrad, Weather by CustomWeather, © 2014

Note: Actual official high and low records may vary slightly from our data, if they occured in-between our weather recording intervals... More about our weather records

Advertising

Kaliningrad weather history for previous 24 hours

 ConditionsComfort  
Time TempWeatherWind HumidityBarometerVisibility
8:00 AM
Oct 25
27 °FClear.8 mph59%30.36 "Hg10 mi
7:30 AM27 °FClear.8 mph59%30.36 "Hg10 mi
7:00 AM27 °FClear.6 mph59%30.36 "Hg10 mi
6:30 AM27 °FClear.8 mph64%30.36 "Hg10 mi
6:00 AM25 °FClear.6 mph69%30.36 "Hg10 mi
5:30 AM25 °FClear.3 mph69%30.39 "Hg10 mi
5:00 AM27 °FClear.6 mph64%30.39 "Hg10 mi
4:00 AM27 °FClear.8 mph64%30.39 "Hg10 mi
3:00 AM28 °FClear.8 mph59%30.39 "Hg10 mi
2:00 AM28 °FClear.10 mph59%30.39 "Hg10 mi
1:00 AM28 °FClear.8 mph59%30.39 "Hg10 mi
12:00 AM28 °FClear.8 mph59%30.39 "Hg10 mi
11:30 PM
Oct 24
28 °FClear.8 mph59%30.39 "Hg10 mi
11:00 PM28 °FClear.8 mph59%30.39 "Hg10 mi
10:30 PM28 °FClear.8 mph64%30.39 "Hg10 mi
10:00 PM28 °FClear.6 mph64%30.39 "Hg10 mi
9:30 PM28 °FClear.6 mph64%30.39 "Hg10 mi
9:00 PM30 °FClear.3 mph59%30.39 "Hg10 mi
8:30 PM30 °FClear.3 mph59%30.39 "Hg10 mi
8:00 PM30 °FSunny.6 mph55%30.39 "Hg10 mi
7:30 PM32 °FSunny.6 mph51%30.39 "Hg10 mi
7:00 PM34 °FSunny.8 mph48%30.39 "Hg10 mi
6:30 PM34 °FSunny.8 mph44%30.39 "Hg10 mi
6:00 PM36 °FSunny.8 mph44%30.39 "Hg10 mi
5:30 PM37 °FSunny.8 mph41%30.39 "Hg10 mi
5:00 PM39 °FPassing clouds.13 mph33%30.39 "HgN/A
4:30 PM39 °FPassing clouds.15 mph36%30.39 "HgN/A
4:00 PM39 °FSunny.15 mph33%30.39 "Hg10 mi
3:30 PM41 °FPassing clouds.13 mph31%30.39 "HgN/A
3:00 PM39 °FSunny.15 mph33%30.39 "Hg10 mi
2:30 PM39 °FPassing clouds.13 mph39%30.42 "HgN/A
2:00 PM37 °FPassing clouds.15 mph38%30.42 "HgN/A
1:30 PM37 °FSunny.15 mph41%30.42 "Hg10 mi
1:00 PM36 °FSunny.13 mph44%30.45 "Hg10 mi
12:30 PM34 °FPassing clouds.13 mph51%30.45 "HgN/A
12:00 PM34 °FPassing clouds.15 mph51%30.45 "HgN/A
11:30 AM32 °FSunny.15 mph55%30.45 "Hg10 mi
11:00 AM30 °FSunny.15 mph59%30.42 "Hg10 mi
10:30 AM30 °FSunny.13 mph59%30.42 "Hg10 mi
10:00 AM28 °FClear.13 mph64%30.42 "Hg10 mi
9:30 AM27 °FClear.10 mph69%30.42 "Hg10 mi
9:00 AM27 °FPassing clouds.10 mph69%30.42 "HgN/A
Weather by CustomWeather, © 2014

See weather overviewHow to use our weather pages